Location: Downe
(51.3167°N, 0.0500°E)
Time: 17:37:34
(UTC+00:00)

Cosmos 1076 Rocket - Pass Details

Date: 17 November 2019
Orbit: 588 x 614 km, 82.5° (Epoch: 05 December)

Event Time Altitude Azimuth Distance (km) Brightness Sun altitude
Exits shadow 04:31:42 41° 19° (NNE) 884 4.4 -26.0°
Drops below altitude 10° 04:34:36 10° 13° (NNE) 1,965 6.3 -25.5°
Sets 04:36:49 0° 12° (NNE) 2,869 7.1 -25.2°
